When you browse on this site, cookies collect data to enhance your experience and personalize the content and advertising you see.
Visit our Privacy Policy to learn more. By continuing to use the site, you agree to this use of cookies and data.
  • In Sweden
  • List of Countries
  • For 7 days
  • Water Temperature
  • Satellite Maps
  • Weather Map
  • Weather Widgets
  • user-avatar
    Login

    Hourly Weather Virga

    Today, 20 March, Wednesday

    Time Temperature Precipitation Wind Pressure Humidity
    00:00 -1°C° 0 mm 4 mps 751 mmHg 97%
    01:00 -1°C° 0 mm 4 mps 751 mmHg 97%
    02:00 -1°C° 0 mm 3 mps 751 mmHg 96%
    03:00 -1°C° 0 mm 3 mps 751 mmHg 96%
    04:00 -1°C° 0 mm 3 mps 751 mmHg 96%
    05:00 -1°C° 0 mm 3 mps 751 mmHg 96%
    06:00 -2°C° 0 mm 3 mps 750 mmHg 96%
    07:00 -1°C° 0 mm 3 mps 750 mmHg 95%
    08:00 -1°C° 0 mm 3 mps 750 mmHg 95%
    09:00 -2°C° 0 mm 4 mps 750 mmHg 95%
    10:00 -1°C° 0 mm 4 mps 750 mmHg 95%
    11:00 +1°C° 0 mm 3 mps 750 mmHg 96%
    12:00 +1°C° 0 mm 3 mps 750 mmHg 97%
    13:00 +1°C° 0 mm 3 mps 749 mmHg 96%
    14:00 +2°C° 0 mm 3 mps 749 mmHg 96%
    15:00 +2°C° 0 mm 3 mps 749 mmHg 96%
    16:00 +1°C° 0.4 mm 3 mps 749 mmHg 97%
    17:00 +1°C° 0.4 mm 3 mps 749 mmHg 97%
    18:00 +2°C° 0.4 mm 2 mps 749 mmHg 97%
    19:00 +2°C° 0.4 mm 2 mps 749 mmHg 98%
    20:00 +1°C° 0.4 mm 2 mps 749 mmHg 98%
    21:00 +1°C° 0.4 mm 2 mps 749 mmHg 98%
    22:00 +1°C° 0.1 mm 2 mps 748 mmHg 98%
    23:00 +1°C° 0.1 mm 2 mps 748 mmHg 97%

    Tomorrow, 21 March, Thursday

    Time Temperature Precipitation Wind Pressure Humidity
    00:00 +1°C° 0.1 mm 2 mps 748 mmHg 97%
    01:00 +1°C° 0.2 mm 2 mps 748 mmHg 96%
    02:00 +1°C° 0.2 mm 2 mps 748 mmHg 96%
    03:00 +1°C° 0.2 mm 2 mps 748 mmHg 95%
    04:00 -1°C° 0.1 mm 2 mps 747 mmHg 95%
    05:00 -1°C° 0.1 mm 2 mps 747 mmHg 95%
    06:00 -1°C° 0.1 mm 2 mps 747 mmHg 94%
    07:00 -1°C° 0 mm 2 mps 747 mmHg 94%
    08:00 -1°C° 0 mm 2 mps 747 mmHg 94%
    09:00 +1°C° 0 mm 2 mps 747 mmHg 94%
    10:00 +1°C° 0 mm 2 mps 747 mmHg 92%
    11:00 +2°C° 0 mm 2 mps 747 mmHg 90%
    12:00 +2°C° 0 mm 2 mps 746 mmHg 88%
    13:00 +2°C° 0 mm 2 mps 746 mmHg 87%
    14:00 +2°C° 0 mm 2 mps 746 mmHg 85%
    15:00 +3°C° 0 mm 2 mps 746 mmHg 84%
    16:00 +2°C° 0.1 mm 2 mps 746 mmHg 84%
    17:00 +1°C° 0.1 mm 2 mps 746 mmHg 85%
    18:00 +1°C° 0.1 mm 2 mps 745 mmHg 85%
    19:00 +1°C° 0 mm 2 mps 745 mmHg 85%
    20:00 +1°C° 0 mm 1 mps 745 mmHg 85%
    21:00 +1°C° 0 mm 1 mps 746 mmHg 85%
    22:00 +1°C° 0 mm 1 mps 745 mmHg 85%
    23:00 0°C° 0 mm 1 mps 745 mmHg 85%

    Day after tomorrow, 22 March, Friday

    Time Temperature Precipitation Wind Pressure Humidity
    00:00 0°C° 0 mm 1 mps 745 mmHg 84%
    01:00 0°C° 0 mm 1 mps 745 mmHg 85%
    02:00 0°C° 0 mm 1 mps 745 mmHg 85%
    03:00 0°C° 0 mm 1 mps 745 mmHg 86%
    04:00 0°C° 0 mm 1 mps 745 mmHg 87%
    05:00 0°C° 0 mm 1 mps 745 mmHg 88%
    06:00 0°C° 0 mm 1 mps 745 mmHg 89%
    07:00 0°C° 0 mm 1 mps 745 mmHg 88%
    08:00 +1°C° 0 mm 1 mps 745 mmHg 87%
    09:00 +1°C° 0 mm 1 mps 745 mmHg 86%
    10:00 +2°C° 0.1 mm 1 mps 745 mmHg 84%
    11:00 +1°C° 0.1 mm 2 mps 745 mmHg 82%
    12:00 +2°C° 0.1 mm 2 mps 744 mmHg 80%
    13:00 +2°C° 0 mm 2 mps 744 mmHg 79%
    14:00 +2°C° 0 mm 2 mps 744 mmHg 78%
    15:00 +3°C° 0 mm 2 mps 743 mmHg 77%
    16:00 +2°C° 0 mm 2 mps 743 mmHg 79%
    17:00 +2°C° 0 mm 2 mps 743 mmHg 82%
    18:00 +1°C° 0 mm 2 mps 742 mmHg 84%
    19:00 0°C° 0 mm 3 mps 742 mmHg 85%
    20:00 0°C° 0 mm 3 mps 742 mmHg 86%
    21:00 0°C° 0 mm 3 mps 741 mmHg 88%
    22:00 -1°C° 0.3 mm 4 mps 740 mmHg 89%
    23:00 -1°C° 0.3 mm 4 mps 739 mmHg 91%

    23 March, Saturday

    Time Temperature Precipitation Wind Pressure Humidity
    00:00 -1°C° 0.3 mm 5 mps 739 mmHg 93%
    01:00 -1°C° 0.1 mm 5 mps 738 mmHg 92%
    02:00 -2°C° 0.1 mm 6 mps 738 mmHg 91%
    03:00 -2°C° 0.1 mm 6 mps 738 mmHg 90%
    04:00 -3°C° 0 mm 6 mps 738 mmHg 89%
    05:00 -4°C° 0 mm 6 mps 738 mmHg 87%
    06:00 -5°C° 0 mm 6 mps 738 mmHg 86%
    07:00 -6°C° 0 mm 7 mps 738 mmHg 85%
    08:00 -4°C° 0 mm 7 mps 738 mmHg 83%
    09:00 -4°C° 0 mm 7 mps 739 mmHg 81%
    10:00 -3°C° 0.1 mm 7 mps 739 mmHg 80%
    11:00 -3°C° 0.1 mm 7 mps 739 mmHg 79%
    12:00 -2°C° 0.1 mm 7 mps 739 mmHg 78%
    13:00 -2°C° 0 mm 6 mps 740 mmHg 77%
    14:00 -1°C° 0 mm 6 mps 740 mmHg 76%
    15:00 -1°C° 0 mm 6 mps 740 mmHg 75%
    16:00 0°C° 0 mm 5 mps 740 mmHg 77%
    17:00 -1°C° 0 mm 4 mps 741 mmHg 79%
    18:00 0°C° 0 mm 3 mps 741 mmHg 81%
    19:00 -1°C° 0 mm 3 mps 741 mmHg 83%
    20:00 -1°C° 0 mm 3 mps 741 mmHg 85%
    21:00 -2°C° 0 mm 3 mps 741 mmHg 87%
    22:00 -2°C° 0 mm 3 mps 741 mmHg 87%
    23:00 -2°C° 0 mm 3 mps 740 mmHg 88%

    24 March, Sunday

    Time Temperature Precipitation Wind Pressure Humidity
    00:00 -4°C° 0 mm 3 mps 740 mmHg 88%
    01:00 -2°C° 0 mm 3 mps 739 mmHg 86%
    02:00 -3°C° 0 mm 4 mps 739 mmHg 84%
    03:00 -2°C° 0 mm 4 mps 738 mmHg 82%
    04:00 -2°C° 0.2 mm 5 mps 737 mmHg 85%
    05:00 -2°C° 0.2 mm 5 mps 736 mmHg 88%
    06:00 -3°C° 0.2 mm 6 mps 735 mmHg 90%
    07:00 -3°C° 0.4 mm 6 mps 735 mmHg 92%
    08:00 -1°C° 0.4 mm 5 mps 734 mmHg 94%
    09:00 0°C° 0.4 mm 5 mps 734 mmHg 96%
    10:00 0°C° 0 mm 5 mps 734 mmHg 89%
    11:00 +1°C° 0 mm 6 mps 734 mmHg 83%
    12:00 0°C° 0 mm 7 mps 734 mmHg 76%
    13:00 0°C° 0 mm 7 mps 734 mmHg 70%
    14:00 +2°C° 0 mm 7 mps 734 mmHg 63%
    15:00 +1°C° 0 mm 8 mps 734 mmHg 56%
    16:00 0°C° 0.1 mm 7 mps 735 mmHg 59%
    17:00 -1°C° 0.1 mm 6 mps 735 mmHg 63%
    18:00 -1°C° 0.1 mm 5 mps 735 mmHg 66%
    19:00 -1°C° 0 mm 5 mps 735 mmHg 68%
    20:00 -1°C° 0 mm 5 mps 735 mmHg 69%
    21:00 -2°C° 0 mm 5 mps 735 mmHg 71%
    22:00 -2°C° 0 mm 5 mps 735 mmHg 72%
    23:00 -3°C° 0 mm 6 mps 735 mmHg 73%

    25 March, Monday

    Time Temperature Precipitation Wind Pressure Humidity
    00:00 -3°C° 0 mm 6 mps 734 mmHg 73%
    01:00 -3°C° 0 mm 6 mps 734 mmHg 74%
    02:00 -4°C° 0 mm 6 mps 735 mmHg 74%
    03:00 -4°C° 0 mm 6 mps 735 mmHg 75%
    04:00 -4°C° 0 mm 6 mps 735 mmHg 73%
    05:00 -4°C° 0 mm 7 mps 735 mmHg 72%
    06:00 -4°C° 0 mm 7 mps 735 mmHg 70%
    07:00 -4°C° 0 mm 7 mps 735 mmHg 67%
    08:00 -4°C° 0 mm 7 mps 736 mmHg 63%
    09:00 -5°C° 0 mm 8 mps 736 mmHg 60%
    10:00 -4°C° 0 mm 8 mps 736 mmHg 57%
    11:00 -2°C° 0 mm 8 mps 736 mmHg 55%
    12:00 -2°C° 0 mm 7 mps 737 mmHg 52%
    13:00 -1°C° 0 mm 7 mps 737 mmHg 52%
    14:00 -1°C° 0 mm 6 mps 737 mmHg 51%
    15:00 +1°C° 0 mm 6 mps 737 mmHg 51%
    16:00 0°C° 0 mm 5 mps 737 mmHg 55%
    17:00 -1°C° 0 mm 4 mps 737 mmHg 59%
    18:00 0°C° 0 mm 3 mps 737 mmHg 63%
    19:00 -1°C° 0 mm 3 mps 737 mmHg 64%
    20:00 -1°C° 0 mm 3 mps 737 mmHg 66%
    21:00 -1°C° 0 mm 3 mps 737 mmHg 67%
    22:00 -1°C° 0 mm 3 mps 737 mmHg 67%
    23:00 -2°C° 0 mm 4 mps 737 mmHg 66%
    Show more